User: anonymous   Login
Location: Caltech
(34.1382°N, 118.1253°W)
Time: 00:34:01
(UTC-08:00)
Language:

Cosmos 1943 Rocket - Orbit

View from above orbital plane
View from above orbital plane
View from above satellite
View from above satellite

Ground track
Ground track

The orbit data is extracted from the following two-line orbital elements,

1 19120U 88039B   17020.70780118 -.00000177  00000-0 -61404-4 0  9999
2 19120  71.0150 276.5375 0020012  50.3896 309.8992 14.19164787485465
Epoch (UTC): 20 January 2017 16:59:14
Eccentricity: 0.0020012
inclination: 71.0150°
perigee height: 814 km
apogee height: 842 km
right ascension of ascending node: 276.5375°
argument of perigee: 50.3896°
revolutions per day: 14.19164787
mean anomaly at epoch: 309.8992°
orbit number at epoch: 48546

The dashed part of the orbit path shows where the satellite is in the earth's shadow,  

DLR